Back to catalog

CUBESAT XI 4

AliveAmateur RadioSSO
NORAD 27848·PAYLOAD·🇯🇵 Japan

Launched Jun 30, 2003 from Plesetsk Cosmodrome

Loading…

Next Passes (next 24 hours)

TLE

FreshSource: Space-Track

Epoch: Sep 14, 2026, 11:52 UTC

1 27848U 03031J   26257.49476793  .00000148  00000-0  84046-4 0  9996
2 27848  98.6802 264.5861 0008535 310.1780  49.8651 14.23659826204080

Track CUBESAT XI 4 in real time with AllMySat

Download on the App Store